owner,sensor,date,latitude,longitude,air_temperature,qcFlag 
WAVCIS,ioos:station:WAVCIS:CSI16:1,2009-01-01T00:00:00Z,29.4012,-89.0355,20.6,11111222 
WAVCIS,ioos:station:WAVCIS:CSI16:1,2009-01-01T01:00:00Z,29.4012,-89.0355,24.77,11111222 
WAVCIS,ioos:station:WAVCIS:CSI16:1,2009-01-01T02:00:00Z,29.4012,-89.0355,23.84,11111222 
WAVCIS,ioos:station:WAVCIS:CSI16:1,2009-01-01T03:00:00Z,29.4012,-89.0355,21.48,11111222 
WAVCIS,ioos:station:WAVCIS:CSI16:1,2009-01-01T04:00:00Z,29.4012,-89.0355,21.02,11111222 
WAVCIS,ioos:station:WAVCIS:CSI16:1,2009-01-01T05:00:00Z,29.4012,-89.0355,18.6,11111222 
WAVCIS,ioos:station:WAVCIS:CSI16:1,2009-01-01T06:00:00Z,29.4012,-89.0355,15.65,11111222 
WAVCIS,ioos:station:WAVCIS:CSI16:1,2009-01-01T07:00:00Z,29.4012,-89.0355,12.88,11111222 
WAVCIS,ioos:station:WAVCIS:CSI16:1,2009-01-01T08:00:00Z,29.4012,-89.0355,11.89,11111222 
WAVCIS,ioos:station:WAVCIS:CSI16:1,2009-01-01T09:00:00Z,29.4012,-89.0355,11.4,11111222 
WAVCIS,ioos:station:WAVCIS:CSI16:1,2009-01-01T10:00:00Z,29.4012,-89.0355,11.56,11111222 
WAVCIS,ioos:station:WAVCIS:CSI16:1,2009-01-01T11:00:00Z,29.4012,-89.0355,11.9,11111222 
WAVCIS,ioos:station:WAVCIS:CSI16:1,2009-01-01T12:00:00Z,29.4012,-89.0355,12.49,11111222 
WAVCIS,ioos:station:WAVCIS:CSI16:1,2009-01-01T13:00:00Z,29.4012,-89.0355,13.35,11111222 
WAVCIS,ioos:station:WAVCIS:CSI16:1,2009-01-01T14:00:00Z,29.4012,-89.0355,14.18,11111222 
WAVCIS,ioos:station:WAVCIS:CSI16:1,2009-01-01T15:00:00Z,29.4012,-89.0355,14.94,11111222 
WAVCIS,ioos:station:WAVCIS:CSI16:1,2009-01-01T16:00:00Z,29.4012,-89.0355,15.46,11111222 
WAVCIS,ioos:station:WAVCIS:CSI16:1,2009-01-01T17:00:00Z,29.4012,-89.0355,15.68,11111222 
WAVCIS,ioos:station:WAVCIS:CSI16:1,2009-01-01T18:00:00Z,29.4012,-89.0355,15.9,11111222 
WAVCIS,ioos:station:WAVCIS:CSI16:1,2009-01-01T19:00:00Z,29.4012,-89.0355,16.13,11111222 
WAVCIS,ioos:station:WAVCIS:CSI16:1,2009-01-01T20:00:00Z,29.4012,-89.0355,16.23,11111222 
WAVCIS,ioos:station:WAVCIS:CSI16:1,2009-01-01T21:00:00Z,29.4012,-89.0355,16.6,11111222 
WAVCIS,ioos:station:WAVCIS:CSI16:1,2009-01-01T22:00:00Z,29.4012,-89.0355,16.52,11111222 
WAVCIS,ioos:station:WAVCIS:CSI16:1,2009-01-01T23:00:00Z,29.4012,-89.0355,16.48,11111222 
WAVCIS,ioos:station:WAVCIS:CSI16:1,2009-01-02T00:00:00Z,29.4012,-89.0355,16.33,11111222 
WAVCIS,ioos:station:WAVCIS:CSI16:1,2009-01-02T01:00:00Z,29.4012,-89.0355,15.62,11111222 
WAVCIS,ioos:station:WAVCIS:CSI16:1,2009-01-02T02:00:00Z,29.4012,-89.0355,15.19,11111222 
WAVCIS,ioos:station:WAVCIS:CSI16:1,2009-01-02T03:00:00Z,29.4012,-89.0355,15.76,11111222 
WAVCIS,ioos:station:WAVCIS:CSI16:1,2009-01-02T04:00:00Z,29.4012,-89.0355,16.26,11111222 
WAVCIS,ioos:station:WAVCIS:CSI16:1,2009-01-02T05:00:00Z,29.4012,-89.0355,16.21,11111222 
WAVCIS,ioos:station:WAVCIS:CSI16:1,2009-01-02T06:00:00Z,29.4012,-89.0355,16.8,11111222 
WAVCIS,ioos:station:WAVCIS:CSI16:1,2009-01-02T07:00:00Z,29.4012,-89.0355,16.98,11111222 
WAVCIS,ioos:station:WAVCIS:CSI16:1,2009-01-02T08:00:00Z,29.4012,-89.0355,17.23,11111222 
WAVCIS,ioos:station:WAVCIS:CSI16:1,2009-01-02T09:00:00Z,29.4012,-89.0355,17.29,11111222 
WAVCIS,ioos:station:WAVCIS:CSI16:1,2009-01-02T10:00:00Z,29.4012,-89.0355,17.45,11111222 
WAVCIS,ioos:station:WAVCIS:CSI16:1,2009-01-02T11:00:00Z,29.4012,-89.0355,17.9,11111222 
WAVCIS,ioos:station:WAVCIS:CSI16:1,2009-01-02T12:00:00Z,29.4012,-89.0355,18.01,11111222 
WAVCIS,ioos:station:WAVCIS:CSI16:1,2009-01-02T13:00:00Z,29.4012,-89.0355,17.2,11111222 
WAVCIS,ioos:station:WAVCIS:CSI16:1,2009-01-02T14:00:00Z,29.4012,-89.0355,17.22,11111222 
WAVCIS,ioos:station:WAVCIS:CSI16:1,2009-01-02T15:00:00Z,29.4012,-89.0355,18.45,11111222 
WAVCIS,ioos:station:WAVCIS:CSI16:1,2009-01-02T16:00:00Z,29.4012,-89.0355,17.71,11111222 
WAVCIS,ioos:station:WAVCIS:CSI16:1,2009-01-02T17:00:00Z,29.4012,-89.0355,18.65,11111222 
WAVCIS,ioos:station:WAVCIS:CSI16:1,2009-01-02T18:00:00Z,29.4012,-89.0355,18.69,11111222 
WAVCIS,ioos:station:WAVCIS:CSI16:1,2009-01-02T19:00:00Z,29.4012,-89.0355,18.06,11111222 
WAVCIS,ioos:station:WAVCIS:CSI16:1,2009-01-02T20:00:00Z,29.4012,-89.0355,19.07,11111222 
WAVCIS,ioos:station:WAVCIS:CSI16:1,2009-01-02T21:00:00Z,29.4012,-89.0355,19.46,11111222 
WAVCIS,ioos:station:WAVCIS:CSI16:1,2009-01-02T22:00:00Z,29.4012,-89.0355,20.11,11111222 
WAVCIS,ioos:station:WAVCIS:CSI16:1,2009-01-02T23:00:00Z,29.4012,-89.0355,18.76,11111222 
WAVCIS,ioos:station:WAVCIS:CSI16:1,2009-01-03T00:00:00Z,29.4012,-89.0355,18.53,11111222 
WAVCIS,ioos:station:WAVCIS:CSI16:1,2009-01-03T01:00:00Z,29.4012,-89.0355,18.41,11111222 
WAVCIS,ioos:station:WAVCIS:CSI16:1,2009-01-03T02:00:00Z,29.4012,-89.0355,18.7,11111222 
WAVCIS,ioos:station:WAVCIS:CSI16:1,2009-01-03T03:00:00Z,29.4012,-89.0355,18.44,11111222 
WAVCIS,ioos:station:WAVCIS:CSI16:1,2009-01-03T04:00:00Z,29.4012,-89.0355,18.37,11111222 
WAVCIS,ioos:station:WAVCIS:CSI16:1,2009-01-03T05:00:00Z,29.4012,-89.0355,17.83,11111222 
WAVCIS,ioos:station:WAVCIS:CSI16:1,2009-01-03T06:00:00Z,29.4012,-89.0355,17.72,11111222 
WAVCIS,ioos:station:WAVCIS:CSI16:1,2009-01-03T07:00:00Z,29.4012,-89.0355,18.31,11111222 
WAVCIS,ioos:station:WAVCIS:CSI16:1,2009-01-03T08:00:00Z,29.4012,-89.0355,18.63,11111222 
WAVCIS,ioos:station:WAVCIS:CSI16:1,2009-01-03T09:00:00Z,29.4012,-89.0355,18.52,11111222 
WAVCIS,ioos:station:WAVCIS:CSI16:1,2009-01-03T10:00:00Z,29.4012,-89.0355,18.65,11111222 
WAVCIS,ioos:station:WAVCIS:CSI16:1,2009-01-03T11:00:00Z,29.4012,-89.0355,18.59,11111222 
WAVCIS,ioos:station:WAVCIS:CSI16:1,2009-01-03T12:00:00Z,29.4012,-89.0355,18.27,11111222 
WAVCIS,ioos:station:WAVCIS:CSI16:1,2009-01-03T13:00:00Z,29.4012,-89.0355,18.39,11111222 
WAVCIS,ioos:station:WAVCIS:CSI16:1,2009-01-03T14:00:00Z,29.4012,-89.0355,18.82,11111222 
WAVCIS,ioos:station:WAVCIS:CSI16:1,2009-01-03T15:00:00Z,29.4012,-89.0355,19.45,11111222 
WAVCIS,ioos:station:WAVCIS:CSI16:1,2009-01-03T16:00:00Z,29.4012,-89.0355,19.98,11111222 
WAVCIS,ioos:station:WAVCIS:CSI16:1,2009-01-03T17:00:00Z,29.4012,-89.0355,19.79,11111222 
WAVCIS,ioos:station:WAVCIS:CSI16:1,2009-01-03T18:00:00Z,29.4012,-89.0355,19.79,11111222 
WAVCIS,ioos:station:WAVCIS:CSI16:1,2009-01-03T19:00:00Z,29.4012,-89.0355,19.67,11111222 
WAVCIS,ioos:station:WAVCIS:CSI16:1,2009-01-03T20:00:00Z,29.4012,-89.0355,19.42,11111222 
WAVCIS,ioos:station:WAVCIS:CSI16:1,2009-01-03T21:00:00Z,29.4012,-89.0355,19.32,11111222 
WAVCIS,ioos:station:WAVCIS:CSI16:1,2009-01-03T22:00:00Z,29.4012,-89.0355,18.03,11111222 
WAVCIS,ioos:station:WAVCIS:CSI16:1,2009-01-03T23:00:00Z,29.4012,-89.0355,15.73,11111222 
WAVCIS,ioos:station:WAVCIS:CSI16:1,2009-01-04T00:00:00Z,29.4012,-89.0355,18.94,11111222 
WAVCIS,ioos:station:WAVCIS:CSI16:1,2009-01-04T01:00:00Z,29.4012,-89.0355,18.78,11111222 
WAVCIS,ioos:station:WAVCIS:CSI16:1,2009-01-04T02:00:00Z,29.4012,-89.0355,17.98,11111222 
WAVCIS,ioos:station:WAVCIS:CSI16:1,2009-01-04T03:00:00Z,29.4012,-89.0355,18.67,11111222 
WAVCIS,ioos:station:WAVCIS:CSI16:1,2009-01-04T04:00:00Z,29.4012,-89.0355,19.62,11111222 
WAVCIS,ioos:station:WAVCIS:CSI16:1,2009-01-04T05:00:00Z,29.4012,-89.0355,18.63,11111222 
WAVCIS,ioos:station:WAVCIS:CSI16:1,2009-01-04T06:00:00Z,29.4012,-89.0355,24.37,11111222 
WAVCIS,ioos:station:WAVCIS:CSI16:1,2009-01-04T07:00:00Z,29.4012,-89.0355,24.04,11111222 
WAVCIS,ioos:station:WAVCIS:CSI16:1,2009-01-04T08:00:00Z,29.4012,-89.0355,18.94,11111222 
WAVCIS,ioos:station:WAVCIS:CSI16:1,2009-01-04T09:00:00Z,29.4012,-89.0355,15.8,11111222 
WAVCIS,ioos:station:WAVCIS:CSI16:1,2009-01-04T10:00:00Z,29.4012,-89.0355,16.63,11111222 
WAVCIS,ioos:station:WAVCIS:CSI16:1,2009-01-04T11:00:00Z,29.4012,-89.0355,16.9,11111222 
WAVCIS,ioos:station:WAVCIS:CSI16:1,2009-01-04T12:00:00Z,29.4012,-89.0355,17.31,11111222 
WAVCIS,ioos:station:WAVCIS:CSI16:1,2009-01-04T13:00:00Z,29.4012,-89.0355,17.24,11111222 
WAVCIS,ioos:station:WAVCIS:CSI16:1,2009-01-04T14:00:00Z,29.4012,-89.0355,17.33,11111222 
WAVCIS,ioos:station:WAVCIS:CSI16:1,2009-01-04T15:00:00Z,29.4012,-89.0355,18.05,11111222 
WAVCIS,ioos:station:WAVCIS:CSI16:1,2009-01-04T16:00:00Z,29.4012,-89.0355,18.77,11111222 
WAVCIS,ioos:station:WAVCIS:CSI16:1,2009-01-04T17:00:00Z,29.4012,-89.0355,18.88,11111222 
WAVCIS,ioos:station:WAVCIS:CSI16:1,2009-01-04T18:00:00Z,29.4012,-89.0355,19.47,11111222 
WAVCIS,ioos:station:WAVCIS:CSI16:1,2009-01-04T19:00:00Z,29.4012,-89.0355,19.51,11111222 
WAVCIS,ioos:station:WAVCIS:CSI16:1,2009-01-04T20:00:00Z,29.4012,-89.0355,19.79,11111222 
WAVCIS,ioos:station:WAVCIS:CSI16:1,2009-01-04T21:00:00Z,29.4012,-89.0355,19.75,11111222 
WAVCIS,ioos:station:WAVCIS:CSI16:1,2009-01-04T22:00:00Z,29.4012,-89.0355,20.0,11111222 
WAVCIS,ioos:station:WAVCIS:CSI16:1,2009-01-04T23:00:00Z,29.4012,-89.0355,20.15,11111222 
WAVCIS,ioos:station:WAVCIS:CSI16:1,2009-01-05T00:00:00Z,29.4012,-89.0355,19.4,11111222 
WAVCIS,ioos:station:WAVCIS:CSI16:1,2009-01-05T01:00:00Z,29.4012,-89.0355,19.47,11111222 
WAVCIS,ioos:station:WAVCIS:CSI16:1,2009-01-05T02:00:00Z,29.4012,-89.0355,19.63,11111222 
WAVCIS,ioos:station:WAVCIS:CSI16:1,2009-01-05T03:00:00Z,29.4012,-89.0355,19.26,11111222 
WAVCIS,ioos:station:WAVCIS:CSI16:1,2009-01-05T04:00:00Z,29.4012,-89.0355,18.99,11111222 
WAVCIS,ioos:station:WAVCIS:CSI16:1,2009-01-05T05:00:00Z,29.4012,-89.0355,19.47,11111222 
WAVCIS,ioos:station:WAVCIS:CSI16:1,2009-01-05T06:00:00Z,29.4012,-89.0355,19.63,11111222 
WAVCIS,ioos:station:WAVCIS:CSI16:1,2009-01-05T07:00:00Z,29.4012,-89.0355,19.45,11111222 
WAVCIS,ioos:station:WAVCIS:CSI16:1,2009-01-05T08:00:00Z,29.4012,-89.0355,18.62,11111222 
WAVCIS,ioos:station:WAVCIS:CSI16:1,2009-01-05T09:00:00Z,29.4012,-89.0355,18.99,11111222 
WAVCIS,ioos:station:WAVCIS:CSI16:1,2009-01-05T10:00:00Z,29.4012,-89.0355,17.57,11111222 
WAVCIS,ioos:station:WAVCIS:CSI16:1,2009-01-05T11:00:00Z,29.4012,-89.0355,17.52,11111222 
WAVCIS,ioos:station:WAVCIS:CSI16:1,2009-01-05T12:00:00Z,29.4012,-89.0355,18.07,11111222 
WAVCIS,ioos:station:WAVCIS:CSI16:1,2009-01-05T13:00:00Z,29.4012,-89.0355,18.5,11111222 
WAVCIS,ioos:station:WAVCIS:CSI16:1,2009-01-05T14:00:00Z,29.4012,-89.0355,19.29,11111222 
WAVCIS,ioos:station:WAVCIS:CSI16:1,2009-01-05T15:00:00Z,29.4012,-89.0355,19.35,11111222 
WAVCIS,ioos:station:WAVCIS:CSI16:1,2009-01-05T16:00:00Z,29.4012,-89.0355,18.69,11111222 
WAVCIS,ioos:station:WAVCIS:CSI16:1,2009-01-05T17:00:00Z,29.4012,-89.0355,19.04,11111222 
WAVCIS,ioos:station:WAVCIS:CSI16:1,2009-01-05T18:00:00Z,29.4012,-89.0355,17.65,11111222 
WAVCIS,ioos:station:WAVCIS:CSI16:1,2009-01-05T19:00:00Z,29.4012,-89.0355,19.02,11111222 
WAVCIS,ioos:station:WAVCIS:CSI16:1,2009-01-05T20:00:00Z,29.4012,-89.0355,18.59,11111222 
WAVCIS,ioos:station:WAVCIS:CSI16:1,2009-01-05T21:00:00Z,29.4012,-89.0355,18.72,11111222 
WAVCIS,ioos:station:WAVCIS:CSI16:1,2009-01-05T22:00:00Z,29.4012,-89.0355,19.76,11111222 
WAVCIS,ioos:station:WAVCIS:CSI16:1,2009-01-05T23:00:00Z,29.4012,-89.0355,18.81,11111222 
WAVCIS,ioos:station:WAVCIS:CSI16:1,2009-01-06T00:00:00Z,29.4012,-89.0355,17.76,11111222 
WAVCIS,ioos:station:WAVCIS:CSI16:1,2009-01-06T01:00:00Z,29.4012,-89.0355,18.43,11111222 
WAVCIS,ioos:station:WAVCIS:CSI16:1,2009-01-06T02:00:00Z,29.4012,-89.0355,18.64,11111222 
WAVCIS,ioos:station:WAVCIS:CSI16:1,2009-01-06T03:00:00Z,29.4012,-89.0355,19.47,11111222 
WAVCIS,ioos:station:WAVCIS:CSI16:1,2009-01-06T04:00:00Z,29.4012,-89.0355,19.24,11111222 
WAVCIS,ioos:station:WAVCIS:CSI16:1,2009-01-06T05:00:00Z,29.4012,-89.0355,18.82,11111222 
WAVCIS,ioos:station:WAVCIS:CSI16:1,2009-01-06T06:00:00Z,29.4012,-89.0355,18.67,11111222 
WAVCIS,ioos:station:WAVCIS:CSI16:1,2009-01-06T07:00:00Z,29.4012,-89.0355,18.52,11111222 
WAVCIS,ioos:station:WAVCIS:CSI16:1,2009-01-06T08:00:00Z,29.4012,-89.0355,18.0,11111222 
WAVCIS,ioos:station:WAVCIS:CSI16:1,2009-01-06T09:00:00Z,29.4012,-89.0355,18.08,11111222 
WAVCIS,ioos:station:WAVCIS:CSI16:1,2009-01-06T10:00:00Z,29.4012,-89.0355,17.87,11111222 
WAVCIS,ioos:station:WAVCIS:CSI16:1,2009-01-06T11:00:00Z,29.4012,-89.0355,16.98,11111222 
WAVCIS,ioos:station:WAVCIS:CSI16:1,2009-01-06T12:00:00Z,29.4012,-89.0355,16.44,11111222 
WAVCIS,ioos:station:WAVCIS:CSI16:1,2009-01-06T13:00:00Z,29.4012,-89.0355,17.93,11111222 
WAVCIS,ioos:station:WAVCIS:CSI16:1,2009-01-06T14:00:00Z,29.4012,-89.0355,18.52,11111222 
WAVCIS,ioos:station:WAVCIS:CSI16:1,2009-01-06T15:00:00Z,29.4012,-89.0355,19.04,11111222 
WAVCIS,ioos:station:WAVCIS:CSI16:1,2009-01-06T16:00:00Z,29.4012,-89.0355,17.99,11111222 
WAVCIS,ioos:station:WAVCIS:CSI16:1,2009-01-06T17:00:00Z,29.4012,-89.0355,18.33,11111222 
WAVCIS,ioos:station:WAVCIS:CSI16:1,2009-01-06T18:00:00Z,29.4012,-89.0355,18.22,11111222 
WAVCIS,ioos:station:WAVCIS:CSI16:1,2009-01-06T19:00:00Z,29.4012,-89.0355,18.46,11111222 
WAVCIS,ioos:station:WAVCIS:CSI16:1,2009-01-06T20:00:00Z,29.4012,-89.0355,19.12,11111222 
WAVCIS,ioos:station:WAVCIS:CSI16:1,2009-01-06T21:00:00Z,29.4012,-89.0355,19.37,11111222 
WAVCIS,ioos:station:WAVCIS:CSI16:1,2009-01-06T22:00:00Z,29.4012,-89.0355,18.81,11111222 
WAVCIS,ioos:station:WAVCIS:CSI16:1,2009-01-06T23:00:00Z,29.4012,-89.0355,18.71,11111222 
WAVCIS,ioos:station:WAVCIS:CSI16:1,2009-01-07T00:00:00Z,29.4012,-89.0355,18.99,11111222 
WAVCIS,ioos:station:WAVCIS:CSI16:1,2009-01-07T01:00:00Z,29.4012,-89.0355,18.62,11111222 
WAVCIS,ioos:station:WAVCIS:CSI16:1,2009-01-07T02:00:00Z,29.4012,-89.0355,18.85,11111222 
WAVCIS,ioos:station:WAVCIS:CSI16:1,2009-01-07T03:00:00Z,29.4012,-89.0355,18.48,11111222 
WAVCIS,ioos:station:WAVCIS:CSI16:1,2009-01-07T04:00:00Z,29.4012,-89.0355,15.42,11111222 
WAVCIS,ioos:station:WAVCIS:CSI16:1,2009-01-07T05:00:00Z,29.4012,-89.0355,15.05,11111222 
WAVCIS,ioos:station:WAVCIS:CSI16:1,2009-01-07T06:00:00Z,29.4012,-89.0355,14.68,11111222 
WAVCIS,ioos:station:WAVCIS:CSI16:1,2009-01-07T07:00:00Z,29.4012,-89.0355,14.27,11111222 
WAVCIS,ioos:station:WAVCIS:CSI16:1,2009-01-07T08:00:00Z,29.4012,-89.0355,14.71,11111222 
WAVCIS,ioos:station:WAVCIS:CSI16:1,2009-01-07T09:00:00Z,29.4012,-89.0355,14.46,11111222 
WAVCIS,ioos:station:WAVCIS:CSI16:1,2009-01-07T10:00:00Z,29.4012,-89.0355,14.25,11111222 
WAVCIS,ioos:station:WAVCIS:CSI16:1,2009-01-07T11:00:00Z,29.4012,-89.0355,14.57,11111222 
WAVCIS,ioos:station:WAVCIS:CSI16:1,2009-01-07T12:00:00Z,29.4012,-89.0355,14.56,11111222 
WAVCIS,ioos:station:WAVCIS:CSI16:1,2009-01-07T13:00:00Z,29.4012,-89.0355,14.09,11111222 
WAVCIS,ioos:station:WAVCIS:CSI16:1,2009-01-07T14:00:00Z,29.4012,-89.0355,13.03,11111222 
WAVCIS,ioos:station:WAVCIS:CSI16:1,2009-01-07T15:00:00Z,29.4012,-89.0355,12.34,11111222 
WAVCIS,ioos:station:WAVCIS:CSI16:1,2009-01-07T16:00:00Z,29.4012,-89.0355,12.2,11111222 
WAVCIS,ioos:station:WAVCIS:CSI16:1,2009-01-07T17:00:00Z,29.4012,-89.0355,12.2,11111222 
WAVCIS,ioos:station:WAVCIS:CSI16:1,2009-01-07T18:00:00Z,29.4012,-89.0355,12.27,11111222 
WAVCIS,ioos:station:WAVCIS:CSI16:1,2009-01-07T19:00:00Z,29.4012,-89.0355,12.63,11111222 
WAVCIS,ioos:station:WAVCIS:CSI16:1,2009-01-07T20:00:00Z,29.4012,-89.0355,12.9,11111222 
WAVCIS,ioos:station:WAVCIS:CSI16:1,2009-01-07T21:00:00Z,29.4012,-89.0355,13.51,11111222 
WAVCIS,ioos:station:WAVCIS:CSI16:1,2009-01-07T22:00:00Z,29.4012,-89.0355,13.97,11111222 
WAVCIS,ioos:station:WAVCIS:CSI16:1,2009-01-07T23:00:00Z,29.4012,-89.0355,13.88,11111222 
WAVCIS,ioos:station:WAVCIS:CSI16:1,2009-01-08T00:00:00Z,29.4012,-89.0355,13.61,11111222 
WAVCIS,ioos:station:WAVCIS:CSI16:1,2009-01-08T01:00:00Z,29.4012,-89.0355,12.94,11111222 
WAVCIS,ioos:station:WAVCIS:CSI16:1,2009-01-08T02:00:00Z,29.4012,-89.0355,13.14,11111222 
WAVCIS,ioos:station:WAVCIS:CSI16:1,2009-01-08T03:00:00Z,29.4012,-89.0355,13.21,11111222 
WAVCIS,ioos:station:WAVCIS:CSI16:1,2009-01-08T04:00:00Z,29.4012,-89.0355,12.76,11111222 
WAVCIS,ioos:station:WAVCIS:CSI16:1,2009-01-08T05:00:00Z,29.4012,-89.0355,11.81,11111222 
WAVCIS,ioos:station:WAVCIS:CSI16:1,2009-01-08T06:00:00Z,29.4012,-89.0355,12.54,11111222 
WAVCIS,ioos:station:WAVCIS:CSI16:1,2009-01-08T07:00:00Z,29.4012,-89.0355,12.81,11111222 
WAVCIS,ioos:station:WAVCIS:CSI16:1,2009-01-08T08:00:00Z,29.4012,-89.0355,12.4,11111222 
WAVCIS,ioos:station:WAVCIS:CSI16:1,2009-01-08T09:00:00Z,29.4012,-89.0355,13.42,11111222 
WAVCIS,ioos:station:WAVCIS:CSI16:1,2009-01-08T10:00:00Z,29.4012,-89.0355,12.99,11111222 
WAVCIS,ioos:station:WAVCIS:CSI16:1,2009-01-08T11:00:00Z,29.4012,-89.0355,13.62,11111222 
WAVCIS,ioos:station:WAVCIS:CSI16:1,2009-01-08T12:00:00Z,29.4012,-89.0355,13.35,11111222 
WAVCIS,ioos:station:WAVCIS:CSI16:1,2009-01-08T13:00:00Z,29.4012,-89.0355,13.82,11111222 
WAVCIS,ioos:station:WAVCIS:CSI16:1,2009-01-08T14:00:00Z,29.4012,-89.0355,14.54,11111222 
WAVCIS,ioos:station:WAVCIS:CSI16:1,2009-01-08T15:00:00Z,29.4012,-89.0355,14.57,11111222 
WAVCIS,ioos:station:WAVCIS:CSI16:1,2009-01-08T16:00:00Z,29.4012,-89.0355,15.24,11111222 
WAVCIS,ioos:station:WAVCIS:CSI16:1,2009-01-08T17:00:00Z,29.4012,-89.0355,15.72,11111222 
WAVCIS,ioos:station:WAVCIS:CSI16:1,2009-01-08T18:00:00Z,29.4012,-89.0355,16.13,11111222 
WAVCIS,ioos:station:WAVCIS:CSI16:1,2009-01-08T19:00:00Z,29.4012,-89.0355,16.44,11111222 
WAVCIS,ioos:station:WAVCIS:CSI16:1,2009-01-08T20:00:00Z,29.4012,-89.0355,16.6,11111222 
WAVCIS,ioos:station:WAVCIS:CSI16:1,2009-01-08T21:00:00Z,29.4012,-89.0355,16.58,11111222 
WAVCIS,ioos:station:WAVCIS:CSI16:1,2009-01-08T22:00:00Z,29.4012,-89.0355,17.03,11111222 
WAVCIS,ioos:station:WAVCIS:CSI16:1,2009-01-08T23:00:00Z,29.4012,-89.0355,16.74,11111222 
WAVCIS,ioos:station:WAVCIS:CSI16:1,2009-01-09T00:00:00Z,29.4012,-89.0355,16.39,11111222 
WAVCIS,ioos:station:WAVCIS:CSI16:1,2009-01-09T01:00:00Z,29.4012,-89.0355,15.68,11111222 
WAVCIS,ioos:station:WAVCIS:CSI16:1,2009-01-09T02:00:00Z,29.4012,-89.0355,15.67,11111222 
WAVCIS,ioos:station:WAVCIS:CSI16:1,2009-01-09T03:00:00Z,29.4012,-89.0355,16.34,11111222 
WAVCIS,ioos:station:WAVCIS:CSI16:1,2009-01-09T04:00:00Z,29.4012,-89.0355,15.59,11111222 
WAVCIS,ioos:station:WAVCIS:CSI16:1,2009-01-09T05:00:00Z,29.4012,-89.0355,15.64,11111222 
WAVCIS,ioos:station:WAVCIS:CSI16:1,2009-01-09T06:00:00Z,29.4012,-89.0355,15.0,11111222 
WAVCIS,ioos:station:WAVCIS:CSI16:1,2009-01-09T07:00:00Z,29.4012,-89.0355,14.41,11111222 
WAVCIS,ioos:station:WAVCIS:CSI16:1,2009-01-09T08:00:00Z,29.4012,-89.0355,14.1,11111222 
WAVCIS,ioos:station:WAVCIS:CSI16:1,2009-01-09T09:00:00Z,29.4012,-89.0355,14.0,11111222 
WAVCIS,ioos:station:WAVCIS:CSI16:1,2009-01-09T10:00:00Z,29.4012,-89.0355,13.39,11111222 
WAVCIS,ioos:station:WAVCIS:CSI16:1,2009-01-09T11:00:00Z,29.4012,-89.0355,12.89,11111222 
WAVCIS,ioos:station:WAVCIS:CSI16:1,2009-01-09T12:00:00Z,29.4012,-89.0355,13.29,11111222 
WAVCIS,ioos:station:WAVCIS:CSI16:1,2009-01-09T13:00:00Z,29.4012,-89.0355,13.3,11111222 
WAVCIS,ioos:station:WAVCIS:CSI16:1,2009-01-09T14:00:00Z,29.4012,-89.0355,14.2,11111222 
WAVCIS,ioos:station:WAVCIS:CSI16:1,2009-01-09T15:00:00Z,29.4012,-89.0355,14.69,11111222 
WAVCIS,ioos:station:WAVCIS:CSI16:1,2009-01-09T16:00:00Z,29.4012,-89.0355,16.03,11111222 
WAVCIS,ioos:station:WAVCIS:CSI16:1,2009-01-09T17:00:00Z,29.4012,-89.0355,17.33,11111222 
WAVCIS,ioos:station:WAVCIS:CSI16:1,2009-01-09T18:00:00Z,29.4012,-89.0355,17.98,11111222 
WAVCIS,ioos:station:WAVCIS:CSI16:1,2009-01-09T19:00:00Z,29.4012,-89.0355,18.22,11111222 
WAVCIS,ioos:station:WAVCIS:CSI16:1,2009-01-09T20:00:00Z,29.4012,-89.0355,18.87,11111222 
WAVCIS,ioos:station:WAVCIS:CSI16:1,2009-01-09T21:00:00Z,29.4012,-89.0355,18.64,11111222 
WAVCIS,ioos:station:WAVCIS:CSI16:1,2009-01-09T22:00:00Z,29.4012,-89.0355,18.47,11111222 
WAVCIS,ioos:station:WAVCIS:CSI16:1,2009-01-09T23:00:00Z,29.4012,-89.0355,18.3,11111222 
WAVCIS,ioos:station:WAVCIS:CSI16:1,2009-01-10T00:00:00Z,29.4012,-89.0355,18.37,11111222 
WAVCIS,ioos:station:WAVCIS:CSI16:1,2009-01-10T01:00:00Z,29.4012,-89.0355,18.42,11111222 
WAVCIS,ioos:station:WAVCIS:CSI16:1,2009-01-10T02:00:00Z,29.4012,-89.0355,18.59,11111222 
WAVCIS,ioos:station:WAVCIS:CSI16:1,2009-01-10T03:00:00Z,29.4012,-89.0355,18.73,11111222 
WAVCIS,ioos:station:WAVCIS:CSI16:1,2009-01-10T04:00:00Z,29.4012,-89.0355,18.88,11111222 
WAVCIS,ioos:station:WAVCIS:CSI16:1,2009-01-10T05:00:00Z,29.4012,-89.0355,18.84,11111222 
WAVCIS,ioos:station:WAVCIS:CSI16:1,2009-01-10T06:00:00Z,29.4012,-89.0355,18.84,11111222 
WAVCIS,ioos:station:WAVCIS:CSI16:1,2009-01-10T07:00:00Z,29.4012,-89.0355,18.77,11111222 
WAVCIS,ioos:station:WAVCIS:CSI16:1,2009-01-10T08:00:00Z,29.4012,-89.0355,19.13,11111222 
WAVCIS,ioos:station:WAVCIS:CSI16:1,2009-01-10T09:00:00Z,29.4012,-89.0355,18.83,11111222 
WAVCIS,ioos:station:WAVCIS:CSI16:1,2009-01-10T10:00:00Z,29.4012,-89.0355,18.41,11111222 
WAVCIS,ioos:station:WAVCIS:CSI16:1,2009-01-10T11:00:00Z,29.4012,-89.0355,18.85,11111222 
WAVCIS,ioos:station:WAVCIS:CSI16:1,2009-01-10T12:00:00Z,29.4012,-89.0355,18.21,11111222 
WAVCIS,ioos:station:WAVCIS:CSI16:1,2009-01-10T13:00:00Z,29.4012,-89.0355,18.2,11111222 
WAVCIS,ioos:station:WAVCIS:CSI16:1,2009-01-10T14:00:00Z,29.4012,-89.0355,18.66,11111222 
WAVCIS,ioos:station:WAVCIS:CSI16:1,2009-01-10T15:00:00Z,29.4012,-89.0355,16.91,11111222 
WAVCIS,ioos:station:WAVCIS:CSI16:1,2009-01-10T16:00:00Z,29.4012,-89.0355,17.76,11111222 
WAVCIS,ioos:station:WAVCIS:CSI16:1,2009-01-10T17:00:00Z,29.4012,-89.0355,18.93,11111222 
WAVCIS,ioos:station:WAVCIS:CSI16:1,2009-01-10T18:00:00Z,29.4012,-89.0355,18.92,11111222 
WAVCIS,ioos:station:WAVCIS:CSI16:1,2009-01-10T19:00:00Z,29.4012,-89.0355,18.73,11111222 
WAVCIS,ioos:station:WAVCIS:CSI16:1,2009-01-10T20:00:00Z,29.4012,-89.0355,18.88,11111222 
WAVCIS,ioos:station:WAVCIS:CSI16:1,2009-01-10T21:00:00Z,29.4012,-89.0355,19.97,11111222 
WAVCIS,ioos:station:WAVCIS:CSI16:1,2009-01-10T22:00:00Z,29.4012,-89.0355,20.3,11111222 
WAVCIS,ioos:station:WAVCIS:CSI16:1,2009-01-10T23:00:00Z,29.4012,-89.0355,19.92,11111222 
WAVCIS,ioos:station:WAVCIS:CSI16:1,2009-01-11T00:00:00Z,29.4012,-89.0355,19.57,11111222 
WAVCIS,ioos:station:WAVCIS:CSI16:1,2009-01-11T01:00:00Z,29.4012,-89.0355,18.57,11111222 
WAVCIS,ioos:station:WAVCIS:CSI16:1,2009-01-11T02:00:00Z,29.4012,-89.0355,18.04,11111222 
WAVCIS,ioos:station:WAVCIS:CSI16:1,2009-01-11T03:00:00Z,29.4012,-89.0355,18.11,11111222 
WAVCIS,ioos:station:WAVCIS:CSI16:1,2009-01-11T04:00:00Z,29.4012,-89.0355,18.45,11111222 
WAVCIS,ioos:station:WAVCIS:CSI16:1,2009-01-11T05:00:00Z,29.4012,-89.0355,18.04,11111222 
WAVCIS,ioos:station:WAVCIS:CSI16:1,2009-01-11T06:00:00Z,29.4012,-89.0355,16.71,11111222 
WAVCIS,ioos:station:WAVCIS:CSI16:1,2009-01-11T07:00:00Z,29.4012,-89.0355,16.37,11111222 
WAVCIS,ioos:station:WAVCIS:CSI16:1,2009-01-11T08:00:00Z,29.4012,-89.0355,14.9,11111222 
WAVCIS,ioos:station:WAVCIS:CSI16:1,2009-01-11T09:00:00Z,29.4012,-89.0355,13.78,11111222 
WAVCIS,ioos:station:WAVCIS:CSI16:1,2009-01-11T10:00:00Z,29.4012,-89.0355,13.04,11111222 
WAVCIS,ioos:station:WAVCIS:CSI16:1,2009-01-11T11:00:00Z,29.4012,-89.0355,12.62,11111222 
WAVCIS,ioos:station:WAVCIS:CSI16:1,2009-01-11T12:00:00Z,29.4012,-89.0355,11.96,11111222 
WAVCIS,ioos:station:WAVCIS:CSI16:1,2009-01-11T13:00:00Z,29.4012,-89.0355,11.25,11111222 
WAVCIS,ioos:station:WAVCIS:CSI16:1,2009-01-11T14:00:00Z,29.4012,-89.0355,10.33,11111222 
WAVCIS,ioos:station:WAVCIS:CSI16:1,2009-01-11T15:00:00Z,29.4012,-89.0355,9.79,11111222 
WAVCIS,ioos:station:WAVCIS:CSI16:1,2009-01-11T16:00:00Z,29.4012,-89.0355,9.14,11111222 
WAVCIS,ioos:station:WAVCIS:CSI16:1,2009-01-11T17:00:00Z,29.4012,-89.0355,8.58,11111222 
WAVCIS,ioos:station:WAVCIS:CSI16:1,2009-01-11T18:00:00Z,29.4012,-89.0355,8.31,11111222 
WAVCIS,ioos:station:WAVCIS:CSI16:1,2009-01-11T19:00:00Z,29.4012,-89.0355,8.22,11111222 
WAVCIS,ioos:station:WAVCIS:CSI16:1,2009-01-11T20:00:00Z,29.4012,-89.0355,8.3,11111222 
WAVCIS,ioos:station:WAVCIS:CSI16:1,2009-01-11T21:00:00Z,29.4012,-89.0355,8.59,11111222 
WAVCIS,ioos:station:WAVCIS:CSI16:1,2009-01-11T22:00:00Z,29.4012,-89.0355,9.47,11111222 
WAVCIS,ioos:station:WAVCIS:CSI16:1,2009-01-11T23:00:00Z,29.4012,-89.0355,9.38,11111222 
WAVCIS,ioos:station:WAVCIS:CSI16:1,2009-01-12T00:00:00Z,29.4012,-89.0355,10.14,11111222 
WAVCIS,ioos:station:WAVCIS:CSI16:1,2009-01-12T01:00:00Z,29.4012,-89.0355,13.83,11111222 
WAVCIS,ioos:station:WAVCIS:CSI16:1,2009-01-12T02:00:00Z,29.4012,-89.0355,16.73,11111222 
WAVCIS,ioos:station:WAVCIS:CSI16:1,2009-01-12T03:00:00Z,29.4012,-89.0355,19.11,11111222 
WAVCIS,ioos:station:WAVCIS:CSI16:1,2009-01-12T04:00:00Z,29.4012,-89.0355,17.1,11111222 